Location: Grossmotten
(48.5500°N, 15.3833°E)
Time: 11:07:53
(UTC+00:00)

Cosmos 2151 - Pass Details

Date: 15 November 2019
Orbit: 581 x 602 km, 82.5° (Epoch: 11 December)

Event Time Altitude Azimuth Distance (km) Brightness Sun altitude
Rises 04:44:53 0° 201° (SSW) 2,839 6.4 -13.4°
Reaches altitude 10° 04:47:08 10° 206° (SSW) 1,942 5.5 -13.0°
Maximum altitude 04:51:20 52° 283° (WNW) 750 3.1 -12.3°
Drops below altitude 10° 04:55:34 10° 1° (N) 1,958 5.5 -11.7°
Sets 04:57:51 0° 6° (N) 2,864 6.4 -11.3°
